Location: Lecco
(45.8566°N, 9.3977°E)
Time: 03:48:50
(UTC+02:00)

Vanguard 1 - All Passes

Search period start: 20 August 2019 00:00
Search period end: 30 August 2019 00:00
Orbit: 655 x 3829 km, 34.2° (Epoch: 17 August)

Date Brightness Start Highest point End Pass type
(mag) Time Alt. Az. Time Alt. Az. Time Alt. Az.
20 Aug - 12:45:14 10° SSW 12:47:42 14° SSE 12:50:07 10° SE daylight
20 Aug - 15:03:19 10° SW 15:06:52 22° S 15:11:09 10° SE daylight
20 Aug - 17:22:53 10° SW 17:26:31 17° SSW 17:31:13 10° SSE daylight
21 Aug - 13:05:24 10° SSW 13:08:26 17° S 13:11:25 10° SE daylight
21 Aug - 15:24:10 10° SW 15:27:39 21° S 15:31:52 10° SE daylight
21 Aug - 17:44:44 10° SW 17:47:24 13° SSW 17:50:37 10° S daylight
22 Aug - 13:25:53 10° SW 13:29:10 19° S 13:32:29 10° SE daylight
22 Aug - 15:45:11 10° SW 15:48:27 18° S 15:52:23 10° SE daylight
23 Aug - 11:28:01 10° SSW 11:30:38 14° SSE 11:32:59 10° SE daylight
23 Aug - 13:46:34 10° SW 13:49:56 20° S 13:53:22 10° SE daylight
23 Aug - 16:06:28 10° SW 16:09:16 15° SSW 16:12:33 10° SSE daylight
24 Aug - 11:48:00 10° SSW 11:51:26 17° S 11:54:25 10° SE daylight
24 Aug - 14:07:24 10° SW 14:10:41 20° S 14:14:06 10° SE daylight
24 Aug - 16:28:21 10° SW 16:30:05 12° SSW 16:32:00 10° S daylight
25 Aug - 09:50:56 10° S 09:52:32 11° SSE 09:54:00 10° SSE daylight
25 Aug - 12:08:24 10° SW 12:12:13 20° S 12:15:30 10° SE daylight
25 Aug - 14:28:23 10° SW 14:31:26 18° S 14:34:39 10° SE daylight
26 Aug - 10:09:41 10° SSW 10:13:26 15° SSE 10:16:28 10° SE daylight
26 Aug - 12:29:03 10° SW 12:33:00 21° S 12:36:25 10° SE daylight
26 Aug - 14:49:36 10° SW 14:52:11 15° SSW 14:54:55 10° SSE daylight
27 Aug - 10:29:35 10° SSW 10:34:17 19° S 10:37:55 10° SE daylight
27 Aug - 12:49:52 10° SW 12:53:46 21° S 12:57:11 10° SE daylight
27 Aug - 15:11:19 10° SW 15:12:56 12° SSW 15:14:36 10° S daylight
28 Aug - 08:31:34 10° S 08:34:58 12° SSE 08:37:50 10° SE daylight
28 Aug - 10:49:56 10° SW 10:55:08 22° S 10:59:03 10° ESE daylight
28 Aug - 13:10:50 10° WSW 13:14:30 20° S 13:17:48 10° SE daylight
29 Aug - 08:50:24 10° SSW 08:55:56 17° SSE 09:00:06 10° SE daylight
29 Aug - 11:10:34 10° SW 11:15:58 24° S 11:19:59 10° SE daylight
29 Aug - 13:31:57 10° WSW 13:35:14 18° SSW 13:38:13 10° SSE daylight
